Time,TemperatureF,DewpointF,PressureIn,WindDirection,WindDirectionDegrees,WindSpeedMPH,WindSpeedGustMPH,Humidity,HourlyPrecipIn,Conditions,Clouds,dailyrainin,SoftwareType,DateUTC
2013-07-14 00:00:00,68.4,57.8,30.09,SW,225,3.8,3.8,69,0.00,,CLR,0.00,VWS V14.01,2013-07-14 04:00:00,
2013-07-14 00:01:00,68.4,57.8,30.09,SW,225,3.8,3.8,69,0.00,,CLR,0.00,VWS V14.01,2013-07-14 04:01:00,
2013-07-14 00:02:00,68.4,57.8,30.09,SW,225,3.8,3.8,69,0.00,,CLR,0.00,VWS V14.01,2013-07-14 04:02:00,
2013-07-14 00:04:00,68.4,57.8,30.06,SW,225,3.8,3.8,69,0.00,,CLR,0.00,VWS V14.01,2013-07-14 04:04:00,
2013-07-14 00:06:00,68.4,57.8,30.06,SW,225,3.8,3.8,69,0.00,,CLR,0.00,VWS V14.01,2013-07-14 04:06:00,
2013-07-14 00:11:00,68.2,57.6,30.06,SW,225,3.8,3.8,69,0.00,,CLR,0.00,VWS V14.01,2013-07-14 04:11:00,
2013-07-14 00:16:00,67.6,57.1,30.06,SW,225,3.8,3.8,69,0.00,,CLR,0.00,VWS V14.01,2013-07-14 04:16:00,
2013-07-14 00:18:00,67.5,57.0,30.06,SW,225,3.8,3.8,69,0.00,,CLR,0.00,VWS V14.01,2013-07-14 04:18:00,
2013-07-14 00:23:00,66.7,56.7,30.06,SW,225,3.8,3.8,70,0.00,,CLR,0.00,VWS V14.01,2013-07-14 04:23:00,
2013-07-14 00:28:00,66.4,56.3,30.06,SW,225,3.8,3.8,70,0.00,,CLR,0.00,VWS V14.01,2013-07-14 04:28:00,
2013-07-14 00:33:00,66.2,56.5,30.09,SW,225,3.8,3.8,71,0.00,,CLR,0.00,VWS V14.01,2013-07-14 04:33:00,
2013-07-14 00:39:00,65.7,56.4,30.09,SW,225,3.8,3.8,72,0.00,,CLR,0.00,VWS V14.01,2013-07-14 04:39:00,
2013-07-14 00:44:00,65.5,56.2,30.09,SW,225,3.8,3.8,72,0.00,,CLR,0.00,VWS V14.01,2013-07-14 04:44:00,
2013-07-14 00:49:00,65.3,56.4,30.06,SW,225,3.8,3.8,73,0.00,,CLR,0.00,VWS V14.01,2013-07-14 04:49:00,
2013-07-14 00:54:00,65.3,56.8,30.06,SW,225,3.8,3.8,74,0.00,,CLR,0.00,VWS V14.01,2013-07-14 04:54:00,
2013-07-14 00:59:00,65.1,57.0,30.06,SW,225,3.8,3.8,75,0.00,,CLR,0.00,VWS V14.01,2013-07-14 04:59:00,
2013-07-14 01:00:00,65.1,57.0,30.06,SW,225,3.8,3.8,75,0.00,,CLR,0.00,VWS V14.01,2013-07-14 05:00:00,
2013-07-14 01:04:00,64.8,57.0,30.09,SW,225,3.8,3.8,76,0.00,,CLR,0.00,VWS V14.01,2013-07-14 05:04:00,
2013-07-14 01:09:00,64.8,57.0,30.09,SW,225,3.8,3.8,76,0.00,,CLR,0.00,VWS V14.01,2013-07-14 05:09:00,
2013-07-14 01:14:00,64.4,57.0,30.09,SW,225,3.8,3.8,77,0.00,,CLR,0.00,VWS V14.01,2013-07-14 05:14:00,
2013-07-14 01:19:00,64.0,56.7,30.06,SW,225,3.8,3.8,77,0.00,,CLR,0.00,VWS V14.01,2013-07-14 05:19:00,
2013-07-14 01:24:00,63.9,56.9,30.06,SW,225,3.8,3.8,78,0.00,,CLR,0.00,VWS V14.01,2013-07-14 05:24:00,
2013-07-14 01:29:00,63.7,57.0,30.06,SW,225,3.8,3.8,79,0.00,,CLR,0.00,VWS V14.01,2013-07-14 05:29:00,
2013-07-14 01:34:00,63.7,57.0,30.09,SW,225,3.8,3.8,79,0.00,,CLR,0.00,VWS V14.01,2013-07-14 05:34:00,
2013-07-14 01:39:00,63.7,57.4,30.09,SW,225,3.8,3.8,80,0.00,,CLR,0.00,VWS V14.01,2013-07-14 05:39:00,
2013-07-14 01:44:00,63.5,57.2,30.09,SW,225,3.8,3.8,80,0.00,,CLR,0.00,VWS V14.01,2013-07-14 05:44:00,
2013-07-14 01:49:00,63.5,57.6,30.06,SW,225,3.8,3.8,81,0.00,,CLR,0.00,VWS V14.01,2013-07-14 05:49:00,
2013-07-14 01:54:00,63.5,57.9,30.06,SW,225,3.8,3.8,82,0.00,,CLR,0.00,VWS V14.01,2013-07-14 05:54:00,
2013-07-14 01:59:00,63.5,57.9,30.06,SW,225,3.8,3.8,82,0.00,,CLR,0.00,VWS V14.01,2013-07-14 05:59:00,
2013-07-14 02:00:00,63.5,57.9,30.06,SW,225,3.8,3.8,82,0.00,,CLR,0.00,VWS V14.01,2013-07-14 06:00:00,
2013-07-14 02:04:00,63.5,58.2,30.09,SW,225,3.8,3.8,83,0.00,,CLR,0.00,VWS V14.01,2013-07-14 06:04:00,
2013-07-14 02:09:00,63.9,58.6,30.09,SW,225,3.8,3.8,83,0.00,,CLR,0.00,VWS V14.01,2013-07-14 06:09:00,
2013-07-14 02:14:00,64.2,59.0,30.09,SW,225,3.8,3.8,83,0.00,,CLR,0.00,VWS V14.01,2013-07-14 06:14:00,
2013-07-14 02:19:00,64.2,59.0,30.09,SW,225,3.8,3.8,83,0.00,,CLR,0.00,VWS V14.01,2013-07-14 06:19:00,
2013-07-14 02:24:00,64.4,59.5,30.09,SW,225,3.8,3.8,84,0.00,,CLR,0.00,VWS V14.01,2013-07-14 06:24:00,
2013-07-14 02:29:00,64.2,59.3,30.09,SW,225,3.8,3.8,84,0.00,,CLR,0.00,VWS V14.01,2013-07-14 06:29:00,
2013-07-14 02:34:00,64.2,59.3,30.06,SW,225,3.8,3.8,84,0.00,,CLR,0.00,VWS V14.01,2013-07-14 06:34:00,
2013-07-14 02:39:00,64.0,59.5,30.06,SW,225,3.8,3.8,85,0.00,,CLR,0.00,VWS V14.01,2013-07-14 06:39:00,
2013-07-14 02:44:00,63.7,59.1,30.06,SW,225,3.8,3.8,85,0.00,,CLR,0.00,VWS V14.01,2013-07-14 06:44:00,
2013-07-14 02:49:00,63.5,58.9,30.09,SW,225,3.8,3.8,85,0.00,,CLR,0.00,VWS V14.01,2013-07-14 06:49:00,
2013-07-14 02:54:00,63.3,58.7,30.09,SW,225,3.8,3.8,85,0.00,,CLR,0.00,VWS V14.01,2013-07-14 06:54:00,
2013-07-14 02:59:00,63.1,58.6,30.09,SW,225,3.8,3.8,85,0.00,,CLR,0.00,VWS V14.01,2013-07-14 06:59:00,
2013-07-14 03:00:00,63.1,58.6,30.09,SW,225,3.8,3.8,85,0.00,,CLR,0.00,VWS V14.01,2013-07-14 07:00:00,
2013-07-14 03:04:00,63.0,58.4,30.06,SW,225,3.8,3.8,85,0.00,,CLR,0.00,VWS V14.01,2013-07-14 07:04:00,
2013-07-14 03:09:00,62.8,58.2,30.06,SW,225,3.8,3.8,85,0.00,,CLR,0.00,VWS V14.01,2013-07-14 07:09:00,
2013-07-14 03:14:00,62.6,58.0,30.06,SW,225,3.8,3.8,85,0.00,,CLR,0.00,VWS V14.01,2013-07-14 07:14:00,
2013-07-14 03:19:00,62.4,57.9,30.06,SW,225,3.8,3.8,85,0.00,,CLR,0.00,VWS V14.01,2013-07-14 07:19:00,
2013-07-14 03:24:00,62.4,57.9,30.06,SW,225,3.8,3.8,85,0.00,,CLR,0.00,VWS V14.01,2013-07-14 07:24:00,
2013-07-14 03:29:00,62.4,58.2,30.06,SW,225,3.8,3.8,86,0.00,,CLR,0.00,VWS V14.01,2013-07-14 07:29:00,
2013-07-14 03:34:00,62.4,58.5,30.09,SW,225,3.8,3.8,87,0.00,,CLR,0.00,VWS V14.01,2013-07-14 07:34:00,
2013-07-14 03:39:00,62.8,58.9,30.09,SW,225,3.8,3.8,87,0.00,,CLR,0.00,VWS V14.01,2013-07-14 07:39:00,
2013-07-14 03:44:00,63.0,59.0,30.09,SW,225,3.8,3.8,87,0.00,,CLR,0.00,VWS V14.01,2013-07-14 07:44:00,
2013-07-14 03:49:00,63.1,59.2,30.09,SW,225,3.8,3.8,87,0.00,,CLR,0.00,VWS V14.01,2013-07-14 07:49:00,
2013-07-14 03:54:00,62.8,58.5,30.09,SW,225,3.8,3.8,86,0.00,,CLR,0.00,VWS V14.01,2013-07-14 07:54:00,
2013-07-14 03:59:00,62.6,58.7,30.09,SW,225,3.8,3.8,87,0.00,,CLR,0.00,VWS V14.01,2013-07-14 07:59:00,
2013-07-14 04:00:00,62.4,58.5,30.09,SW,225,3.8,3.8,87,0.00,,CLR,0.00,VWS V14.01,2013-07-14 08:00:00,
2013-07-14 04:04:00,62.2,58.3,30.09,SW,225,3.8,3.8,87,0.00,,CLR,0.00,VWS V14.01,2013-07-14 08:04:00,
2013-07-14 04:09:00,62.2,58.7,30.09,SW,225,3.8,3.8,88,0.00,,CLR,0.00,VWS V14.01,2013-07-14 08:09:00,
2013-07-14 04:14:00,62.2,59.0,30.09,SW,225,3.8,3.8,89,0.00,,CLR,0.00,VWS V14.01,2013-07-14 08:14:00,
2013-07-14 04:19:00,62.4,59.1,30.09,SW,225,3.8,3.8,89,0.00,,CLR,0.00,VWS V14.01,2013-07-14 08:19:00,
2013-07-14 04:24:00,62.4,59.5,30.09,SW,225,3.8,3.8,90,0.00,,CLR,0.00,VWS V14.01,2013-07-14 08:24:00,
2013-07-14 04:29:00,62.1,58.8,30.09,SW,225,3.8,3.8,89,0.00,,CLR,0.00,VWS V14.01,2013-07-14 08:29:00,
2013-07-14 04:35:00,61.9,58.6,30.09,SW,225,3.8,3.8,89,0.00,,CLR,0.00,VWS V14.01,2013-07-14 08:35:00,
2013-07-14 04:40:00,62.1,59.1,30.09,SW,225,3.8,3.8,90,0.00,,CLR,0.00,VWS V14.01,2013-07-14 08:40:00,
2013-07-14 04:45:00,62.1,59.1,30.09,SW,225,3.8,3.8,90,0.00,,CLR,0.00,VWS V14.01,2013-07-14 08:45:00,
2013-07-14 04:50:00,62.1,59.1,30.09,SW,225,3.8,3.8,90,0.00,,CLR,0.00,VWS V14.01,2013-07-14 08:50:00,
2013-07-14 04:55:00,62.2,59.3,30.09,SW,225,3.8,3.8,90,0.00,,CLR,0.00,VWS V14.01,2013-07-14 08:55:00,
2013-07-14 05:00:00,62.2,59.6,30.09,SW,225,3.8,3.8,91,0.00,,CLR,0.00,VWS V14.01,2013-07-14 09:00:00,
2013-07-14 05:05:00,62.4,59.8,30.12,SW,225,3.8,3.8,91,0.00,,CLR,0.00,VWS V14.01,2013-07-14 09:05:00,
2013-07-14 05:10:00,62.2,59.6,30.12,SW,225,3.8,3.8,91,0.00,,CLR,0.00,VWS V14.01,2013-07-14 09:10:00,
2013-07-14 05:15:00,62.1,59.1,30.12,SW,225,3.8,3.8,90,0.00,,CLR,0.00,VWS V14.01,2013-07-14 09:15:00,
2013-07-14 05:20:00,61.7,58.7,30.12,SW,225,3.8,3.8,90,0.00,,CLR,0.00,VWS V14.01,2013-07-14 09:20:00,
2013-07-14 05:25:00,61.7,59.0,30.12,SW,225,3.8,3.8,91,0.00,,CLR,0.00,VWS V14.01,2013-07-14 09:25:00,
2013-07-14 05:30:00,61.7,59.4,30.12,SW,225,3.8,3.8,92,0.00,,CLR,0.00,VWS V14.01,2013-07-14 09:30:00,
2013-07-14 05:35:00,61.5,59.2,30.12,SW,225,3.8,3.8,92,0.00,,CLR,0.00,VWS V14.01,2013-07-14 09:35:00,
2013-07-14 05:40:00,61.3,59.0,30.12,SW,225,3.8,3.8,92,0.00,,CLR,0.00,VWS V14.01,2013-07-14 09:40:00,
2013-07-14 05:45:00,61.2,59.1,30.12,SW,225,3.8,3.8,93,0.00,,CLR,0.00,VWS V14.01,2013-07-14 09:45:00,
2013-07-14 05:50:00,61.3,59.3,30.12,SW,225,3.8,3.8,93,0.00,,CLR,0.00,VWS V14.01,2013-07-14 09:50:00,
2013-07-14 05:55:00,61.3,59.3,30.12,SW,225,3.8,3.8,93,0.00,,CLR,0.00,VWS V14.01,2013-07-14 09:55:00,
2013-07-14 06:00:00,61.7,59.7,30.12,SW,225,3.8,3.8,93,0.00,,CLR,0.00,VWS V14.01,2013-07-14 10:00:00,
2013-07-14 06:05:00,61.9,59.8,30.12,SW,225,3.8,3.8,93,0.00,,CLR,0.00,VWS V14.01,2013-07-14 10:05:00,
2013-07-14 06:10:00,62.1,60.0,30.12,SW,225,3.8,3.8,93,0.00,,CLR,0.00,VWS V14.01,2013-07-14 10:10:00,
2013-07-14 06:15:00,62.1,60.0,30.12,SW,225,3.8,3.8,93,0.00,,CLR,0.00,VWS V14.01,2013-07-14 10:15:00,
2013-07-14 06:20:00,62.1,60.0,30.12,SW,225,3.8,3.8,93,0.00,,CLR,0.00,VWS V14.01,2013-07-14 10:20:00,
2013-07-14 06:25:00,62.2,60.2,30.12,SW,225,3.8,3.8,93,0.00,,CLR,0.00,VWS V14.01,2013-07-14 10:25:00,
2013-07-14 06:30:00,62.6,60.5,30.12,SW,225,3.8,3.8,93,0.00,,CLR,0.00,VWS V14.01,2013-07-14 10:30:00,
2013-07-14 06:35:00,63.1,61.1,30.12,SW,225,3.8,3.8,93,0.00,,CLR,0.00,VWS V14.01,2013-07-14 10:35:00,
2013-07-14 06:40:00,63.9,62.1,30.12,SW,225,3.8,3.8,94,0.00,,CLR,0.00,VWS V14.01,2013-07-14 10:40:00,
2013-07-14 06:45:00,64.8,63.0,30.12,SW,225,3.8,3.8,94,0.00,,CLR,0.00,VWS V14.01,2013-07-14 10:45:00,
2013-07-14 06:50:00,65.7,63.6,30.12,SW,225,3.8,3.8,93,0.00,,CLR,0.00,VWS V14.01,2013-07-14 10:50:00,
2013-07-14 06:55:00,66.4,64.0,30.12,SW,225,3.8,3.8,92,0.00,,CLR,0.00,VWS V14.01,2013-07-14 10:55:00,
2013-07-14 07:00:00,67.1,64.4,30.12,SW,225,3.8,3.8,91,0.00,,CLR,0.00,VWS V14.01,2013-07-14 11:00:00,
2013-07-14 07:05:00,68.0,65.0,30.12,SW,225,3.8,3.8,90,0.00,,CLR,0.00,VWS V14.01,2013-07-14 11:05:00,
2013-07-14 07:10:00,68.5,65.2,30.12,SW,225,3.8,3.8,89,0.00,,CLR,0.00,VWS V14.01,2013-07-14 11:10:00,
2013-07-14 07:15:00,69.3,65.6,30.12,SW,225,3.8,3.8,88,0.00,,CLR,0.00,VWS V14.01,2013-07-14 11:15:00,
2013-07-14 07:20:00,70.2,65.4,30.12,SW,225,3.8,3.8,85,0.00,,CLR,0.00,VWS V14.01,2013-07-14 11:20:00,
2013-07-14 07:25:00,70.9,64.8,30.12,SW,225,3.8,3.8,81,0.00,,CLR,0.00,VWS V14.01,2013-07-14 11:25:00,
2013-07-14 07:30:00,71.4,64.6,30.12,SW,225,3.8,3.8,79,0.00,,CLR,0.00,VWS V14.01,2013-07-14 11:30:00,
2013-07-14 07:36:00,72.1,63.8,30.12,SW,225,3.8,3.8,75,0.00,,CLR,0.00,VWS V14.01,2013-07-14 11:36:00,
2013-07-14 07:41:00,72.9,63.7,30.12,SW,225,3.8,3.8,73,0.00,,CLR,0.00,VWS V14.01,2013-07-14 11:41:00,
2013-07-14 07:46:00,73.4,63.0,30.12,SW,225,3.8,3.8,70,0.00,,CLR,0.00,VWS V14.01,2013-07-14 11:46:00,
2013-07-14 07:51:00,73.8,62.5,30.12,SW,225,3.8,3.8,68,0.00,,CLR,0.00,VWS V14.01,2013-07-14 11:51:00,
2013-07-14 07:56:00,74.5,62.8,30.12,SW,225,3.8,3.8,67,0.00,,CLR,0.00,VWS V14.01,2013-07-14 11:56:00,
2013-07-14 08:00:00,75.2,63.1,30.12,SW,225,3.8,3.8,66,0.00,,CLR,0.00,VWS V14.01,2013-07-14 12:00:00,
2013-07-14 08:01:00,75.2,63.1,30.12,SW,225,3.8,3.8,66,0.00,,CLR,0.00,VWS V14.01,2013-07-14 12:01:00,
2013-07-14 08:06:00,76.3,63.7,30.12,SW,225,3.8,3.8,65,0.00,,CLR,0.00,VWS V14.01,2013-07-14 12:06:00,
2013-07-14 08:11:00,77.0,63.5,30.12,SW,225,3.8,3.8,63,0.00,,CLR,0.00,VWS V14.01,2013-07-14 12:11:00,
2013-07-14 08:16:00,77.5,63.0,30.12,SW,225,3.8,3.8,61,0.00,,CLR,0.00,VWS V14.01,2013-07-14 12:16:00,
2013-07-14 08:21:00,78.1,63.1,30.12,SW,225,3.8,3.8,60,0.00,,CLR,0.00,VWS V14.01,2013-07-14 12:21:00,
2013-07-14 08:26:00,78.3,62.3,30.12,SW,225,3.8,3.8,58,0.00,,CLR,0.00,VWS V14.01,2013-07-14 12:26:00,
2013-07-14 08:31:00,78.6,61.6,30.12,SW,225,3.8,3.8,56,0.00,,CLR,0.00,VWS V14.01,2013-07-14 12:31:00,
2013-07-14 08:36:00,79.2,62.6,30.12,SW,225,3.8,3.8,57,0.00,,CLR,0.00,VWS V14.01,2013-07-14 12:36:00,
2013-07-14 08:41:00,80.1,63.0,30.12,SW,225,3.8,3.8,56,0.00,,CLR,0.00,VWS V14.01,2013-07-14 12:41:00,
2013-07-14 08:46:00,80.6,63.5,30.12,SW,225,3.8,3.8,56,0.00,,CLR,0.00,VWS V14.01,2013-07-14 12:46:00,
2013-07-14 08:51:00,81.0,62.8,30.12,SW,225,3.8,3.8,54,0.00,,CLR,0.00,VWS V14.01,2013-07-14 12:51:00,
2013-07-14 08:56:00,81.5,62.2,30.12,SW,225,3.8,3.8,52,0.00,,CLR,0.00,VWS V14.01,2013-07-14 12:56:00,
2013-07-14 09:00:00,82.0,62.7,30.12,SW,225,3.8,3.8,52,0.00,,CLR,0.00,VWS V14.01,2013-07-14 13:00:00,
2013-07-14 09:01:00,82.2,62.9,30.12,SW,225,3.8,3.8,52,0.00,,CLR,0.00,VWS V14.01,2013-07-14 13:01:00,
2013-07-14 09:06:00,82.6,62.6,30.12,SW,225,3.8,3.8,51,0.00,,CLR,0.00,VWS V14.01,2013-07-14 13:06:00,
2013-07-14 09:11:00,83.5,62.9,30.12,SW,225,3.8,3.8,50,0.00,,CLR,0.00,VWS V14.01,2013-07-14 13:11:00,
2013-07-14 09:16:00,83.8,62.7,30.12,SW,225,3.8,3.8,49,0.00,,CLR,0.00,VWS V14.01,2013-07-14 13:16:00,
2013-07-14 09:21:00,84.7,62.9,30.12,SW,225,3.8,3.8,48,0.00,,CLR,0.00,VWS V14.01,2013-07-14 13:21:00,
2013-07-14 09:26:00,85.6,63.7,30.12,SW,225,3.8,3.8,48,0.00,,CLR,0.00,VWS V14.01,2013-07-14 13:26:00,
2013-07-14 09:31:00,86.4,63.2,30.12,SW,225,3.8,3.8,46,0.00,,CLR,0.00,VWS V14.01,2013-07-14 13:31:00,
2013-07-14 09:36:00,86.4,62.5,30.09,SW,225,3.8,3.8,45,0.00,,CLR,0.00,VWS V14.01,2013-07-14 13:36:00,
2013-07-14 09:41:00,86.5,62.1,30.09,SW,225,3.8,3.8,44,0.00,,CLR,0.00,VWS V14.01,2013-07-14 13:41:00,
2013-07-14 09:46:00,87.8,63.8,30.09,SW,225,3.8,3.8,45,0.00,,CLR,0.00,VWS V14.01,2013-07-14 13:46:00,
2013-07-14 09:51:00,88.2,62.9,30.06,SW,225,3.8,3.8,43,0.00,,CLR,0.00,VWS V14.01,2013-07-14 13:51:00,
2013-07-14 09:56:00,88.3,63.0,30.06,SW,225,3.8,3.8,43,0.00,,CLR,0.00,VWS V14.01,2013-07-14 13:56:00,
2013-07-14 10:00:00,88.5,62.5,30.06,SW,225,3.8,3.8,42,0.00,,CLR,0.00,VWS V14.01,2013-07-14 14:00:00,
2013-07-14 10:01:00,88.7,63.3,30.06,SW,225,3.8,3.8,43,0.00,,CLR,0.00,VWS V14.01,2013-07-14 14:01:00,
2013-07-14 10:06:00,89.1,62.3,30.09,SW,225,3.8,3.8,41,0.00,,CLR,0.00,VWS V14.01,2013-07-14 14:06:00,
2013-07-14 10:11:00,89.1,61.6,30.09,SW,225,3.8,3.8,40,0.00,,CLR,0.00,VWS V14.01,2013-07-14 14:11:00,
2013-07-14 10:16:00,90.3,62.0,30.09,SSE,158,3.1,4.0,39,0.00,,CLR,0.00,VWS V14.01,2013-07-14 14:16:00,
2013-07-14 10:21:00,90.3,63.5,30.09,SSW,202,2.2,4.9,41,0.00,,CLR,0.00,VWS V14.01,2013-07-14 14:21:00,
2013-07-14 10:26:00,90.5,61.5,30.09,SW,225,1.6,4.9,38,0.00,,CLR,0.00,VWS V14.01,2013-07-14 14:26:00,
2013-07-14 10:31:00,91.0,62.7,30.09,East,90,3.4,4.9,39,0.00,,CLR,0.00,VWS V14.01,2013-07-14 14:31:00,
2013-07-14 10:36:00,90.5,62.2,30.09,South,180,2.5,5.4,39,0.00,,CLR,0.00,VWS V14.01,2013-07-14 14:36:00,
2013-07-14 10:41:00,90.5,62.2,30.09,SSW,202,2.7,5.4,39,0.00,,CLR,0.00,VWS V14.01,2013-07-14 14:41:00,
2013-07-14 10:46:00,91.0,62.7,30.09,SSW,202,1.6,5.4,39,0.00,,CLR,0.00,VWS V14.01,2013-07-14 14:46:00,
2013-07-14 10:51:00,92.5,62.4,30.09,SSE,158,2.5,5.4,37,0.00,,CLR,0.00,VWS V14.01,2013-07-14 14:51:00,
2013-07-14 10:56:00,92.3,62.3,30.09,SSE,158,4.0,5.4,37,0.00,,CLR,0.00,VWS V14.01,2013-07-14 14:56:00,
2013-07-14 11:00:00,93.2,61.5,30.09,WSW,248,1.1,5.4,35,0.00,,CLR,0.00,VWS V14.01,2013-07-14 15:00:00,
2013-07-14 11:05:00,94.1,62.3,30.06,East,90,1.6,5.6,35,0.00,,CLR,0.00,VWS V14.01,2013-07-14 15:05:00,
2013-07-14 11:11:00,92.8,62.0,30.06,South,180,2.0,5.6,36,0.00,,CLR,0.00,VWS V14.01,2013-07-14 15:11:00,
2013-07-14 11:16:00,93.6,61.8,30.06,SSE,158,4.3,5.6,35,0.00,,CLR,0.00,VWS V14.01,2013-07-14 15:16:00,
2013-07-14 11:21:00,93.2,59.8,30.09,SSE,158,3.8,5.6,33,0.00,,CLR,0.00,VWS V14.01,2013-07-14 15:21:00,
2013-07-14 11:26:00,92.7,61.0,30.09,NNW,338,0.0,5.6,35,0.00,,CLR,0.00,VWS V14.01,2013-07-14 15:26:00,
2013-07-14 11:31:00,91.9,59.6,30.09,SE,135,2.7,5.6,34,0.00,,CLR,0.00,VWS V14.01,2013-07-14 15:31:00,
2013-07-14 11:36:00,89.6,59.9,30.09,South,180,0.9,5.6,37,0.00,,CLR,0.00,VWS V14.01,2013-07-14 15:36:00,
2013-07-14 11:41:00,89.1,60.2,30.09,SSW,202,2.9,5.6,38,0.00,,CLR,0.00,VWS V14.01,2013-07-14 15:41:00,
2013-07-14 11:46:00,92.3,62.3,30.09,NNW,338,0.0,5.6,37,0.00,,CLR,0.00,VWS V14.01,2013-07-14 15:46:00,
2013-07-14 11:51:00,92.8,59.5,30.09,SSE,158,4.0,5.8,33,0.00,,CLR,0.00,VWS V14.01,2013-07-14 15:51:00,
2013-07-14 11:56:00,92.7,60.2,30.09,East,90,2.7,5.8,34,0.00,,CLR,0.00,VWS V14.01,2013-07-14 15:56:00,
2013-07-14 12:00:00,93.4,60.0,30.09,East,90,3.4,5.8,33,0.00,,CLR,0.00,VWS V14.01,2013-07-14 16:00:00,
2013-07-14 12:01:00,92.8,58.7,30.09,East,90,2.7,3.4,32,0.00,,CLR,0.00,VWS V14.01,2013-07-14 16:01:00,
2013-07-14 12:06:00,91.4,59.1,30.09,East,90,1.1,3.4,34,0.00,,CLR,0.00,VWS V14.01,2013-07-14 16:06:00,
2013-07-14 12:11:00,93.7,59.5,30.09,SW,225,4.3,4.5,32,0.00,,CLR,0.00,VWS V14.01,2013-07-14 16:11:00,
2013-07-14 12:16:00,91.2,57.3,30.09,ENE,68,0.0,4.5,32,0.00,,CLR,0.00,VWS V14.01,2013-07-14 16:16:00,
2013-07-14 12:21:00,92.8,59.5,30.09,SSW,202,2.5,4.5,33,0.00,,CLR,0.00,VWS V14.01,2013-07-14 16:21:00,
2013-07-14 12:26:00,91.6,58.4,30.09,South,180,0.0,4.5,33,0.00,,CLR,0.00,VWS V14.01,2013-07-14 16:26:00,
2013-07-14 12:31:00,91.9,58.8,30.09,SSE,158,1.6,4.5,33,0.00,,CLR,0.00,VWS V14.01,2013-07-14 16:31:00,
2013-07-14 12:36:00,90.0,58.7,30.09,SSE,158,3.1,4.5,35,0.00,,CLR,0.00,VWS V14.01,2013-07-14 16:36:00,
2013-07-14 12:41:00,89.1,57.9,30.09,SSE,158,0.0,4.5,35,0.00,,CLR,0.00,VWS V14.01,2013-07-14 16:41:00,
2013-07-14 12:46:00,89.6,57.5,30.09,WSW,248,1.3,4.5,34,0.00,,CLR,0.00,VWS V14.01,2013-07-14 16:46:00,
2013-07-14 12:51:00,89.4,58.2,30.09,South,180,0.9,4.5,35,0.00,,CLR,0.00,VWS V14.01,2013-07-14 16:51:00,
2013-07-14 12:56:00,92.7,61.8,30.09,WSW,248,2.0,4.5,36,0.00,,CLR,0.00,VWS V14.01,2013-07-14 16:56:00,
2013-07-14 13:00:00,94.1,58.9,30.09,East,90,3.8,4.9,31,0.00,,CLR,0.00,VWS V14.01,2013-07-14 17:00:00,
2013-07-14 13:01:00,94.1,58.0,30.09,ESE,112,4.3,4.3,30,0.00,,CLR,0.00,VWS V14.01,2013-07-14 17:01:00,
2013-07-14 13:06:00,95.4,60.9,30.09,SSE,158,3.4,4.3,32,0.00,,CLR,0.00,VWS V14.01,2013-07-14 17:06:00,
2013-07-14 13:11:00,96.1,60.6,30.09,SSW,202,3.8,4.7,31,0.00,,CLR,0.00,VWS V14.01,2013-07-14 17:11:00,
2013-07-14 13:16:00,95.2,58.9,30.09,NNE,22,1.3,4.9,30,0.00,,CLR,0.00,VWS V14.01,2013-07-14 17:16:00,
2013-07-14 13:21:00,94.8,57.6,30.06,SW,225,3.4,6.0,29,0.00,,CLR,0.00,VWS V14.01,2013-07-14 17:21:00,
2013-07-14 13:26:00,97.0,59.5,30.06,SSW,202,0.9,6.0,29,0.00,,CLR,0.00,VWS V14.01,2013-07-14 17:26:00,
2013-07-14 13:31:00,94.5,59.2,30.06,SSW,202,4.0,6.0,31,0.00,,CLR,0.00,VWS V14.01,2013-07-14 17:31:00,
2013-07-14 13:36:00,95.2,57.9,30.06,ESE,112,6.0,6.0,29,0.00,,CLR,0.00,VWS V14.01,2013-07-14 17:36:00,
2013-07-14 13:41:00,94.5,57.3,30.06,ESE,112,4.0,6.0,29,0.00,,CLR,0.00,VWS V14.01,2013-07-14 17:41:00,
2013-07-14 13:46:00,95.2,59.8,30.06,SSE,158,4.9,6.3,31,0.00,,CLR,0.00,VWS V14.01,2013-07-14 17:46:00,
2013-07-14 13:51:00,94.6,59.3,30.06,SSE,158,3.8,6.3,31,0.00,,CLR,0.00,VWS V14.01,2013-07-14 17:51:00,
2013-07-14 13:56:00,93.6,59.3,30.06,SSE,158,3.6,6.3,32,0.00,,CLR,0.00,VWS V14.01,2013-07-14 17:56:00,
2013-07-14 14:00:00,92.7,58.5,30.06,South,180,2.7,6.3,32,0.00,,CLR,0.00,VWS V14.01,2013-07-14 18:00:00,
2013-07-14 14:01:00,93.4,59.1,30.06,South,180,2.5,2.7,32,0.00,,CLR,0.00,VWS V14.01,2013-07-14 18:01:00,
2013-07-14 14:06:00,94.3,59.0,30.06,WSW,248,0.9,2.7,31,0.00,,CLR,0.00,VWS V14.01,2013-07-14 18:06:00,
2013-07-14 14:12:00,92.3,57.3,30.06,West,270,2.0,2.7,31,0.00,,CLR,0.00,VWS V14.01,2013-07-14 18:12:00,
2013-07-14 14:17:00,92.1,57.2,30.06,East,90,2.7,5.4,31,0.00,,CLR,0.00,VWS V14.01,2013-07-14 18:17:00,
2013-07-14 14:22:00,93.6,57.5,30.06,East,90,4.3,5.4,30,0.00,,CLR,0.00,VWS V14.01,2013-07-14 18:22:00,
2013-07-14 14:27:00,91.8,56.0,30.06,East,90,3.1,5.8,30,0.00,,CLR,0.00,VWS V14.01,2013-07-14 18:27:00,
2013-07-14 14:32:00,94.5,59.2,30.06,SSE,158,2.9,5.8,31,0.00,,CLR,0.00,VWS V14.01,2013-07-14 18:32:00,
2013-07-14 14:37:00,94.8,57.6,30.06,East,90,3.4,7.8,29,0.00,,CLR,0.00,VWS V14.01,2013-07-14 18:37:00,
2013-07-14 14:42:00,92.7,56.7,30.06,ESE,112,2.7,7.8,30,0.00,,CLR,0.00,VWS V14.01,2013-07-14 18:42:00,
2013-07-14 14:47:00,91.8,56.9,30.06,ESE,112,2.5,7.8,31,0.00,,CLR,0.00,VWS V14.01,2013-07-14 18:47:00,
2013-07-14 14:52:00,93.7,57.7,30.06,South,180,2.5,7.8,30,0.00,,CLR,0.00,VWS V14.01,2013-07-14 18:52:00,
2013-07-14 14:57:00,93.6,59.3,30.06,WSW,248,1.6,7.8,32,0.00,,CLR,0.00,VWS V14.01,2013-07-14 18:57:00,
2013-07-14 15:00:00,93.9,57.8,30.06,SE,135,2.9,7.8,30,0.00,,CLR,0.00,VWS V14.01,2013-07-14 19:00:00,
2013-07-14 15:02:00,93.7,57.7,30.06,SSE,158,2.9,3.1,30,0.00,,CLR,0.00,VWS V14.01,2013-07-14 19:02:00,
2013-07-14 15:07:00,93.4,58.2,30.06,ESE,112,1.3,3.4,31,0.00,,CLR,0.00,VWS V14.01,2013-07-14 19:07:00,
2013-07-14 15:12:00,92.8,57.8,30.06,ESE,112,2.9,6.3,31,0.00,,CLR,0.00,VWS V14.01,2013-07-14 19:12:00,
2013-07-14 15:17:00,92.8,56.9,30.06,SSE,158,2.5,6.3,30,0.00,,CLR,0.00,VWS V14.01,2013-07-14 19:17:00,
2013-07-14 15:22:00,91.9,56.1,30.06,ESE,112,3.4,6.3,30,0.00,,CLR,0.00,VWS V14.01,2013-07-14 19:22:00,
2013-07-14 15:27:00,95.0,57.8,30.06,ENE,68,1.6,6.3,29,0.00,,CLR,0.00,VWS V14.01,2013-07-14 19:27:00,
2013-07-14 15:32:00,95.2,57.0,30.06,East,90,2.0,6.3,28,0.00,,CLR,0.00,VWS V14.01,2013-07-14 19:32:00,
2013-07-14 15:37:00,96.1,58.7,30.06,South,180,4.9,6.3,29,0.00,,CLR,0.00,VWS V14.01,2013-07-14 19:37:00,
2013-07-14 15:42:00,94.6,58.4,30.06,South,180,3.6,6.5,30,0.00,,CLR,0.00,VWS V14.01,2013-07-14 19:42:00,
2013-07-14 15:47:00,94.3,59.0,30.06,SSW,202,4.7,6.5,31,0.00,,CLR,0.00,VWS V14.01,2013-07-14 19:47:00,
2013-07-14 15:52:00,94.8,59.5,30.06,WSW,248,2.5,6.5,31,0.00,,CLR,0.00,VWS V14.01,2013-07-14 19:52:00,
2013-07-14 15:57:00,93.0,58.8,30.06,South,180,3.4,6.5,32,0.00,,CLR,0.00,VWS V14.01,2013-07-14 19:57:00,
2013-07-14 16:00:00,91.6,57.6,30.06,South,180,3.8,6.5,32,0.00,,CLR,0.00,VWS V14.01,2013-07-14 20:00:00,
2013-07-14 16:02:00,92.5,57.5,30.06,SE,135,2.7,3.8,31,0.00,,CLR,0.00,VWS V14.01,2013-07-14 20:02:00,
2013-07-14 16:07:00,95.0,58.7,30.00,South,180,4.0,5.8,30,0.00,,CLR,0.00,VWS V14.01,2013-07-14 20:07:00,
2013-07-14 16:12:00,96.3,58.9,30.00,WSW,248,0.0,5.8,29,0.00,,CLR,0.00,VWS V14.01,2013-07-14 20:12:00,
2013-07-14 16:17:00,97.0,59.5,30.00,SSW,202,3.4,5.8,29,0.00,,CLR,0.00,VWS V14.01,2013-07-14 20:17:00,
2013-07-14 16:22:00,95.4,58.1,30.03,SSE,158,2.5,6.5,29,0.00,,CLR,0.00,VWS V14.01,2013-07-14 20:22:00,
2013-07-14 16:27:00,95.2,56.0,30.03,South,180,3.4,6.5,27,0.00,,CLR,0.00,VWS V14.01,2013-07-14 20:27:00,
2013-07-14 16:32:00,95.2,58.9,30.03,South,180,3.1,6.5,30,0.00,,CLR,0.00,VWS V14.01,2013-07-14 20:32:00,
2013-07-14 16:37:00,95.7,58.4,30.03,South,180,4.0,6.5,29,0.00,,CLR,0.00,VWS V14.01,2013-07-14 20:37:00,
2013-07-14 16:43:00,96.3,57.9,30.03,South,180,2.7,6.5,28,0.00,,CLR,0.00,VWS V14.01,2013-07-14 20:43:00,
2013-07-14 16:48:00,96.3,56.9,30.03,ESE,112,5.6,8.1,27,0.00,,CLR,0.00,VWS V14.01,2013-07-14 20:48:00,
2013-07-14 16:53:00,97.0,57.5,30.03,SE,135,3.8,8.1,27,0.00,,CLR,0.00,VWS V14.01,2013-07-14 20:53:00,
2013-07-14 16:58:00,96.8,57.3,30.03,ENE,68,6.3,8.1,27,0.00,,CLR,0.00,VWS V14.01,2013-07-14 20:58:00,
2013-07-14 17:00:00,96.8,57.3,30.03,ESE,112,3.4,8.1,27,0.00,,CLR,0.00,VWS V14.01,2013-07-14 21:00:00,
2013-07-14 17:03:00,97.0,57.5,30.03,ENE,68,3.4,5.8,27,0.00,,CLR,0.00,VWS V14.01,2013-07-14 21:03:00,
2013-07-14 17:08:00,93.9,55.9,30.03,SE,135,4.0,5.8,28,0.00,,CLR,0.00,VWS V14.01,2013-07-14 21:08:00,
2013-07-14 17:13:00,92.1,56.3,30.03,SE,135,2.7,5.8,30,0.00,,CLR,0.00,VWS V14.01,2013-07-14 21:13:00,
2013-07-14 17:18:00,93.7,58.6,30.03,ESE,112,4.0,5.8,31,0.00,,CLR,0.00,VWS V14.01,2013-07-14 21:18:00,
2013-07-14 17:23:00,95.4,57.1,30.03,ESE,112,2.5,5.8,28,0.00,,CLR,0.00,VWS V14.01,2013-07-14 21:23:00,
2013-07-14 17:28:00,96.3,56.9,30.03,SSW,202,2.2,5.8,27,0.00,,CLR,0.00,VWS V14.01,2013-07-14 21:28:00,
2013-07-14 17:33:00,96.8,57.3,30.03,WSW,248,1.3,5.8,27,0.00,,CLR,0.00,VWS V14.01,2013-07-14 21:33:00,
2013-07-14 17:38:00,96.8,58.3,30.03,SSE,158,2.7,5.8,28,0.00,,CLR,0.00,VWS V14.01,2013-07-14 21:38:00,
2013-07-14 17:43:00,96.1,57.7,30.03,SSE,158,3.1,5.8,28,0.00,,CLR,0.00,VWS V14.01,2013-07-14 21:43:00,
2013-07-14 17:48:00,96.3,57.9,30.03,SSE,158,2.2,5.8,28,0.00,,CLR,0.00,VWS V14.01,2013-07-14 21:48:00,
2013-07-14 17:53:00,96.6,57.2,30.03,SSE,158,3.6,5.8,27,0.00,,CLR,0.00,VWS V14.01,2013-07-14 21:53:00,
2013-07-14 17:58:00,96.1,56.7,30.03,South,180,3.4,5.8,27,0.00,,CLR,0.00,VWS V14.01,2013-07-14 21:58:00,
2013-07-14 18:00:00,94.6,59.3,30.03,SSW,202,2.0,5.8,31,0.00,,CLR,0.00,VWS V14.01,2013-07-14 22:00:00,
2013-07-14 18:03:00,93.4,57.3,30.03,South,180,3.1,4.0,30,0.00,,CLR,0.00,VWS V14.01,2013-07-14 22:03:00,
2013-07-14 18:08:00,92.5,57.5,30.03,SE,135,3.1,5.4,31,0.00,,CLR,0.00,VWS V14.01,2013-07-14 22:08:00,
2013-07-14 18:13:00,90.7,57.7,30.03,SE,135,2.5,5.4,33,0.00,,CLR,0.00,VWS V14.01,2013-07-14 22:13:00,
2013-07-14 18:18:00,89.8,56.9,30.03,SE,135,1.6,5.4,33,0.00,,CLR,0.00,VWS V14.01,2013-07-14 22:18:00,
2013-07-14 18:23:00,91.4,58.3,30.03,South,180,0.9,5.4,33,0.00,,CLR,0.00,VWS V14.01,2013-07-14 22:23:00,
2013-07-14 18:28:00,90.5,60.7,30.03,South,180,1.1,5.4,37,0.00,,CLR,0.00,VWS V14.01,2013-07-14 22:28:00,
2013-07-14 18:33:00,90.1,58.8,30.03,SSE,158,0.9,5.4,35,0.00,,CLR,0.00,VWS V14.01,2013-07-14 22:33:00,
2013-07-14 18:38:00,92.7,59.4,30.03,ENE,68,2.5,5.4,33,0.00,,CLR,0.00,VWS V14.01,2013-07-14 22:38:00,
2013-07-14 18:43:00,93.6,57.5,30.03,East,90,2.5,5.4,30,0.00,,CLR,0.00,VWS V14.01,2013-07-14 22:43:00,
2013-07-14 18:48:00,91.2,56.4,30.03,ESE,112,2.5,5.8,31,0.00,,CLR,0.00,VWS V14.01,2013-07-14 22:48:00,
2013-07-14 18:53:00,90.3,56.5,30.03,ESE,112,2.5,5.8,32,0.00,,CLR,0.00,VWS V14.01,2013-07-14 22:53:00,
2013-07-14 18:58:00,91.9,57.9,30.03,ESE,112,2.5,5.8,32,0.00,,CLR,0.00,VWS V14.01,2013-07-14 22:58:00,
2013-07-14 19:00:00,92.5,58.4,30.03,ESE,112,2.5,5.8,32,0.00,,CLR,0.00,VWS V14.01,2013-07-14 23:00:00,
2013-07-14 19:03:00,93.0,59.7,30.03,ESE,112,2.5,2.5,33,0.00,,CLR,0.00,VWS V14.01,2013-07-14 23:03:00,
2013-07-14 19:08:00,92.7,59.4,30.03,ESE,112,2.5,2.5,33,0.00,,CLR,0.00,VWS V14.01,2013-07-14 23:08:00,
2013-07-14 19:13:00,92.1,58.9,30.03,ESE,112,2.5,2.5,33,0.00,,CLR,0.00,VWS V14.01,2013-07-14 23:13:00,
2013-07-14 19:18:00,90.9,57.8,30.03,ESE,112,2.5,2.5,33,0.00,,CLR,0.00,VWS V14.01,2013-07-14 23:18:00,
2013-07-14 19:23:00,90.1,58.0,30.03,ESE,112,2.5,2.5,34,0.00,,CLR,0.00,VWS V14.01,2013-07-14 23:23:00,
2013-07-14 19:28:00,88.9,58.5,30.03,ESE,112,2.5,2.5,36,0.00,,CLR,0.00,VWS V14.01,2013-07-14 23:28:00,
2013-07-14 19:33:00,87.8,59.8,30.03,ESE,112,2.5,2.5,39,0.00,,CLR,0.00,VWS V14.01,2013-07-14 23:33:00,
2013-07-14 19:38:00,87.1,59.8,30.03,ESE,112,2.5,2.5,40,0.00,,CLR,0.00,VWS V14.01,2013-07-14 23:38:00,
2013-07-14 19:44:00,86.5,60.1,30.03,ESE,112,2.5,2.5,41,0.00,,CLR,0.00,VWS V14.01,2013-07-14 23:44:00,
2013-07-14 19:49:00,86.2,60.4,30.00,ESE,112,2.5,2.5,42,0.00,,CLR,0.00,VWS V14.01,2013-07-14 23:49:00,
2013-07-14 19:54:00,85.8,60.8,30.00,ESE,112,2.5,2.5,43,0.00,,CLR,0.00,VWS V14.01,2013-07-14 23:54:00,
2013-07-14 19:59:00,85.1,63.8,30.00,ESE,112,2.5,2.5,49,0.00,,CLR,0.00,VWS V14.01,2013-07-14 23:59:00,
2013-07-14 20:00:00,85.1,63.2,30.00,ESE,112,2.5,2.5,48,0.00,,CLR,0.00,VWS V14.01,2013-07-15 00:00:00,
2013-07-14 20:04:00,84.9,63.7,30.03,ESE,112,2.5,2.5,49,0.00,,CLR,0.00,VWS V14.01,2013-07-15 00:04:00,
2013-07-14 20:09:00,84.6,63.3,30.03,ESE,112,2.5,2.5,49,0.00,,CLR,0.00,VWS V14.01,2013-07-15 00:09:00,
2013-07-14 20:14:00,84.6,63.3,30.03,ESE,112,2.5,2.5,49,0.00,,CLR,0.00,VWS V14.01,2013-07-15 00:14:00,
2013-07-14 20:19:00,84.7,62.3,30.03,ESE,112,2.5,2.5,47,0.00,,CLR,0.00,VWS V14.01,2013-07-15 00:19:00,
2013-07-14 20:24:00,84.0,63.4,30.03,ESE,112,2.5,2.5,50,0.00,,CLR,0.00,VWS V14.01,2013-07-15 00:24:00,
2013-07-14 20:29:00,83.3,63.3,30.03,ESE,112,2.5,2.5,51,0.00,,CLR,0.00,VWS V14.01,2013-07-15 00:29:00,
2013-07-14 20:34:00,82.6,66.8,30.03,ESE,112,2.5,2.5,59,0.00,,CLR,0.00,VWS V14.01,2013-07-15 00:34:00,
2013-07-14 20:39:00,82.2,66.5,30.03,ESE,112,2.5,2.5,59,0.00,,CLR,0.00,VWS V14.01,2013-07-15 00:39:00,
2013-07-14 20:44:00,81.5,66.3,30.03,ESE,112,2.5,2.5,60,0.00,,CLR,0.00,VWS V14.01,2013-07-15 00:44:00,
2013-07-14 20:49:00,81.1,66.4,30.03,ESE,112,2.5,2.5,61,0.00,,CLR,0.00,VWS V14.01,2013-07-15 00:49:00,
2013-07-14 20:54:00,80.1,68.1,30.03,ESE,112,2.5,2.5,67,0.00,,CLR,0.00,VWS V14.01,2013-07-15 00:54:00,
2013-07-14 20:59:00,79.5,66.7,30.03,ESE,112,2.5,2.5,65,0.00,,CLR,0.00,VWS V14.01,2013-07-15 00:59:00,
2013-07-14 21:00:00,79.5,66.7,30.03,ESE,112,2.5,2.5,65,0.00,,CLR,0.00,VWS V14.01,2013-07-15 01:00:00,
2013-07-14 21:04:00,79.2,66.4,30.03,ESE,112,2.5,2.5,65,0.00,,CLR,0.00,VWS V14.01,2013-07-15 01:04:00,
2013-07-14 21:09:00,79.0,66.7,30.03,ESE,112,2.5,2.5,66,0.00,,CLR,0.00,VWS V14.01,2013-07-15 01:09:00,
2013-07-14 21:14:00,78.6,66.3,30.03,ESE,112,2.5,2.5,66,0.00,,CLR,0.00,VWS V14.01,2013-07-15 01:14:00,
2013-07-14 21:19:00,78.1,66.2,30.03,ESE,112,2.5,2.5,67,0.00,,CLR,0.00,VWS V14.01,2013-07-15 01:19:00,
2013-07-14 21:24:00,77.5,66.6,30.03,ESE,112,2.5,2.5,69,0.00,,CLR,0.00,VWS V14.01,2013-07-15 01:24:00,
2013-07-14 21:29:00,77.0,66.1,30.03,ESE,112,2.5,2.5,69,0.00,,CLR,0.00,VWS V14.01,2013-07-15 01:29:00,
2013-07-14 21:34:00,76.8,65.9,30.03,SSE,158,1.6,2.5,69,0.00,,CLR,0.00,VWS V14.01,2013-07-15 01:34:00,
2013-07-14 21:39:00,76.8,65.5,30.03,SSE,158,1.6,2.5,68,0.00,,CLR,0.00,VWS V14.01,2013-07-15 01:39:00,
2013-07-14 21:44:00,76.8,65.9,30.03,SSE,158,1.6,2.5,69,0.00,,CLR,0.00,VWS V14.01,2013-07-15 01:44:00,
2013-07-14 21:49:00,76.5,65.5,30.03,SSE,158,1.6,2.5,69,0.00,,CLR,0.00,VWS V14.01,2013-07-15 01:49:00,
2013-07-14 21:54:00,76.3,65.4,30.03,SSE,158,1.6,2.5,69,0.00,,CLR,0.00,VWS V14.01,2013-07-15 01:54:00,
2013-07-14 21:59:00,75.7,64.4,30.03,SSE,158,1.6,2.5,68,0.00,,CLR,0.00,VWS V14.01,2013-07-15 01:59:00,
2013-07-14 22:00:00,75.7,64.4,30.03,SSE,158,1.6,2.5,68,0.00,,CLR,0.00,VWS V14.01,2013-07-15 02:00:00,
2013-07-14 22:04:00,75.6,64.3,30.03,SSE,158,1.6,1.6,68,0.00,,CLR,0.00,VWS V14.01,2013-07-15 02:04:00,
2013-07-14 22:09:00,75.4,64.1,30.03,SSE,158,1.6,1.6,68,0.00,,CLR,0.00,VWS V14.01,2013-07-15 02:09:00,
2013-07-14 22:14:00,75.2,65.6,30.03,SSE,158,1.6,1.6,72,0.00,,CLR,0.00,VWS V14.01,2013-07-15 02:14:00,
2013-07-14 22:19:00,74.8,65.2,30.03,SSE,158,1.6,1.6,72,0.00,,CLR,0.00,VWS V14.01,2013-07-15 02:19:00,
2013-07-14 22:24:00,74.7,64.6,30.03,SSE,158,1.6,1.6,71,0.00,,CLR,0.00,VWS V14.01,2013-07-15 02:24:00,
2013-07-14 22:29:00,74.7,64.6,30.03,SSE,158,1.6,1.6,71,0.00,,CLR,0.00,VWS V14.01,2013-07-15 02:29:00,
2013-07-14 22:35:00,74.8,64.8,30.06,SSE,158,1.6,1.6,71,0.00,,CLR,0.00,VWS V14.01,2013-07-15 02:35:00,
2013-07-14 22:40:00,74.8,64.8,30.06,SSE,158,1.6,1.6,71,0.00,,CLR,0.00,VWS V14.01,2013-07-15 02:40:00,
2013-07-14 22:45:00,74.7,64.6,30.06,SSE,158,1.6,1.6,71,0.00,,CLR,0.00,VWS V14.01,2013-07-15 02:45:00,
2013-07-14 22:50:00,74.3,64.3,30.06,SSE,158,1.6,1.6,71,0.00,,CLR,0.00,VWS V14.01,2013-07-15 02:50:00,
2013-07-14 22:55:00,73.9,64.0,30.06,SSE,158,1.6,1.6,71,0.00,,CLR,0.00,VWS V14.01,2013-07-15 02:55:00,
2013-07-14 23:00:00,73.8,63.8,30.06,SSE,158,1.6,1.6,71,0.00,,CLR,0.00,VWS V14.01,2013-07-15 03:00:00,
2013-07-14 23:05:00,73.8,64.6,30.06,SSE,158,1.6,1.6,73,0.00,,CLR,0.00,VWS V14.01,2013-07-15 03:05:00,
2013-07-14 23:10:00,73.9,65.1,30.06,SSE,158,1.6,1.6,74,0.00,,CLR,0.00,VWS V14.01,2013-07-15 03:10:00,
2013-07-14 23:15:00,74.3,65.5,30.06,SSE,158,1.6,1.6,74,0.00,,CLR,0.00,VWS V14.01,2013-07-15 03:15:00,
2013-07-14 23:20:00,75.0,66.2,30.06,SSE,158,1.6,1.6,74,0.00,,CLR,0.00,VWS V14.01,2013-07-15 03:20:00,
2013-07-14 23:25:00,75.2,66.3,30.06,SSE,158,1.6,1.6,74,0.00,,CLR,0.00,VWS V14.01,2013-07-15 03:25:00,
2013-07-14 23:30:00,75.4,66.5,30.06,SSE,158,1.6,1.6,74,0.00,,CLR,0.00,VWS V14.01,2013-07-15 03:30:00,
2013-07-14 23:35:00,75.0,66.6,30.09,SSE,158,1.6,1.6,75,0.00,,CLR,0.00,VWS V14.01,2013-07-15 03:35:00,
2013-07-14 23:40:00,75.0,66.9,30.09,SSE,158,1.6,1.6,76,0.00,,CLR,0.00,VWS V14.01,2013-07-15 03:40:00,
2013-07-14 23:45:00,75.0,66.6,30.09,SSE,158,1.6,1.6,75,0.00,,CLR,0.00,VWS V14.01,2013-07-15 03:45:00,
2013-07-14 23:50:00,75.0,66.9,30.09,SSE,158,1.6,1.6,76,0.00,,CLR,0.00,VWS V14.01,2013-07-15 03:50:00,
2013-07-14 23:55:00,74.8,66.8,30.09,SSE,158,1.6,1.6,76,0.00,,CLR,0.00,VWS V14.01,2013-07-15 03:55:00,